Regional Weather Roundup
Issued by NWS Spokane, WA

Home | Current Version | Previous Version | Text Only | Print | Product List | Glossary On
Versions: 1 2 3 4 5 6 7 8 9 10 11 12 13 14 15 16 17 18 19 20 21 22 23 24 25 26 27 28 29 30 31 32 33 34 35 36 37 38 39 40 41 42 43 44 45 46 47 48 49 50
982
NZUS01 KOTX 190725
RWROTX

Eastern Washington/Northern Idaho Roundup
National Weather Service, Spokane WA
1100 PM PST SUN FEB 18 2018

Note: "fair" indicated few or no clouds below 12,000 feet with no
significant weather and/or obstructions to visibility.

...Northeast Washington and Northern Idaho Panhandle...

CITY           SKY/WX    TMP DP  RH WIND       PRES   REMARKS
Spokane Intl   MOCLDY    14   2  58 NE15      29.84R WCI  -1
Spokane Downto CLOUDY    18   4  54 N6        29.89R WCI  10
Coeur d Alene  PTCLDY    11   2  67 N21       29.87R WCI  -8
Deer Park      MOCLDY    13   1  59 NE12      29.90R WCI  -1
Sandpoint        N/A     12  -4  48 NE21G30   29.95S WCI  -6
Bonners Ferry  CLOUDY     7  -4  61 N6        30.01S WCI  -3

...Southeast Washington and southern Idaho Panhandle...

CITY           SKY/WX    TMP DP  RH WIND       PRES   REMARKS
Walla Walla    CLOUDY    26  16  65 N15       29.84R WCI  14
Pullman/Moscow CLOUDY    24  18  77 E12       29.73S WCI  13
Lewiston       FLURRIES  30  26  85 S6        29.77R WCI  24
Lowell           N/A     24  14  65 VRB6      29.82R WCI  17
Grangeville    CLOUDY    21  21 100 NE7       29.66R WCI  13

...Columbia Basin...

CITY           SKY/WX    TMP DP  RH WIND       PRES   REMARKS
Ephrata        MOCLDY    24   7  48 N18       29.94R WCI  10
Moses Lake     PTCLDY    23  13  65 N14       29.94R WCI  11
Pasco          PTCLDY    27  11  51 N16       29.96R WCI  15
Richland       MOSUNNY   28  17  63 N12       29.98R WCI  17
Hermiston      CLOUDY    28  13  53 N21G28    29.91R WCI  15
Pendleton      CLOUDY    23  15  71 N12       29.84R WCI  12

...East Slopes Cascades...

CITY           SKY/WX    TMP DP  RH WIND       PRES   REMARKS
The Dalles     CLOUDY    31  25  78 SE6       29.95R WCI  25
Yakima         CLOUDY    30  11  45 E5        29.94R WCI  25
Ellensburg     CLOUDY    27   9  46 NE3       29.89R
Stampede Pass  CLOUDY    14   9  80 VRB5      29.74R WCI   6
Wenatchee      CLOUDY    25   8  48 CALM      29.97R
Winthrop       FAIR      13   1  58 N6        30.01R WCI   4
Omak           CLOUDY    22  10  60 N9        30.00R WCI  12
Sunnyside      PTSUNNY   26  11  54 N24G36    29.91R WCI  10

...Southern British Columbia...

CITY           SKY/WX    TMP DP  RH WIND       PRES   REMARKS
Penticton      MOCLDY    21   5  49 N14       30.08R WCI   8
Cranbrook      MOCLDY     0  -8  71 VRB2      29.99S
Osoyoos          N/A     25   9  50 N17G31      N/A  WCI  11
Creston          N/A     12  -8  40 E8          N/A  WCI   1

...Western Montana...

CITY           SKY/WX    TMP DP  RH WIND       PRES   REMARKS
Kalispell      PTSUNNY    6  -6  57 NE15      29.96R WCI -12
Missoula       MOCLDY     8  -6  52 E9        29.89S WCI  -5

...Neighboring Cities...

CITY           SKY/WX    TMP DP  RH WIND       PRES   REMARKS
Seattle        MOCLDY    30  16  56 N16G24    29.97R WCI  19
Portland       FLURRIES  32  31  96 NW9       29.90R WCI  24
Boise          CLEAR     26  21  81 E3        29.64R
Great Falls    LGT SNOW  -4  -9  79 N6        30.02S WCI -16
Calgary        MOCLDY    -6 -13  71 CALM      30.03S



USA.gov is the U.S. government's official web portal to all federal, state and local government web resources and services.